Regional Weather Roundup
Issued by NWS Sioux Falls, SD

Home | Current Version | Previous Version | Text Only | Print | Product List | Glossary On
Versions: 1 2 3 4 5 6 7 8 9 10 11 12 13 14 15 16 17 18 19 20 21 22 23 24 25 26 27 28 29 30 31 32 33 34 35 36 37 38 39 40 41 42 43 44 45 46 47 48 49 50
000
ASUS43 KFSD 230202
RWRFSD

WEATHER ROUNDUP FOR SE SOUTH DAKOTA/SW MINNESOTA/NW IOWA
NATIONAL WEATHER SERVICE SIOUX FALLS SD
800 PM CST WED NOV 22 2017

NOTE: "FAIR" INDICATES FEW OR NO CLOUDS BELOW 12,000 FEET WITH NO
SIGNIFICANT WEATHER AND OR OBSTRUCTIONS TO VISIBILITY.


SDZ038>040-050-052>070-230300-
SOUTHEAST SOUTH DAKOTA

CITY           SKY/WX    TMP DP  RH WIND       PRES   REMARKS
BROOKINGS      CLOUDY    32  20  61 S5        29.92F WCI  27
CHAMBERLAIN    CLOUDY    50  37  60 W7        29.95S
HURON          CLEAR     35  23  61 S3        29.91S
MADISON        FAIR      36  21  55 SW13      29.92F
MITCHELL       CLEAR     33  24  69 S5        29.93S WCI  29
SIOUX FALLS    CLEAR     39  22  50 SW6       29.94F
WINNER         FAIR      54  38  54 W10       29.99R
YANKTON        CLEAR     36  22  56 S3        29.96S
$$

MNZ071-072-080-081-089-090-097-098-230300-
SOUTHWEST MINNESOTA

CITY           SKY/WX    TMP DP  RH WIND       PRES   REMARKS
FAIRMONT       CLOUDY    34  17  50 S12       29.99S WCI  25
JACKSON        CLEAR     32  18  55 SW17      29.95F WCI  21
MARSHALL       CLOUDY    35  19  52 W13       29.92F WCI  26
MONTEVIDEO     CLOUDY    28  18  64 SW5       29.92F WCI  23
PIPESTONE      CLEAR     30  18  59 SW10      29.92F WCI  21
REDWOOD FALLS  CLEAR     29  15  56 S10       29.95F WCI  20
WINDOM         CLEAR     32  16  51 SW10      29.95S WCI  24
WORTHINGTON    CLEAR     32  18  56 SW15      29.95S WCI  22
$$

IAZ001>003-012>014-020>022-031-032-NEZ013-014-SDZ071-230300-
NORTHWEST IOWA

CITY           SKY/WX    TMP DP  RH WIND       PRES   REMARKS
CHEROKEE       CLEAR     32  18  55 S7        30.00S WCI  26
DENISON        CLEAR     34  18  51 S12G18    30.05F WCI  25
ESTHERVILLE    CLOUDY    32  17  54 SW21G28   29.96F WCI  20
LE MARS        CLEAR     34  19  55 S10       29.99S WCI  26
ORANGE CITY    CLEAR     34  21  60 S9        29.98S WCI  26
SHELDON        CLEAR     34  18  51 S10G16    29.95F WCI  26
SIOUX CITY     CLEAR     35  19  52 S5        30.01F
SPENCER        CLEAR     31  16  54 S10       29.99F WCI  22
STORM LAKE     CLEAR     32  16  51 SW17G24   29.99F WCI  21
$$

ABBREVIATIONS USED IN REMARKS
   TC - TEMPERATURE IN CELSIUS
  WCI - WIND CHILL INDEX
   HX - HEAT INDEX
  VSB - VISIBILITY





USA.gov is the U.S. government's official web portal to all federal, state and local government web resources and services.